Location: Cogollal
(10.0582°N, 67.8466°W)
Time: 02:37:37
(UTC+00:00)

Aurora 2 Rocket - Pass Details

Date: 14 April 2024
Orbit: 387 x 1636 km, 25.0° (Epoch: 19 May)

Event Time Altitude Azimuth Distance (km) Brightness Sun altitude
Exits shadow 09:31:52 17° 259° (W) 2,405 4.9 -12.8°
Maximum altitude 09:37:17 60° 335° (NNW) 957 3.4 -11.5°
Drops below altitude 10° 09:42:11 10° 56° (NE) 2,096 6.5 -10.3°
Sets 09:44:14 0° 60° (ENE) 2,854 7.6 -9.8°
